Location: Newark
(35.2672°N, 80.7344°W)
Time: 11:44:36
(UTC+00:00)

Transit 2A Rocket - Pass Details

Date: 01 February 2020
Orbit: 592 x 911 km, 66.7° (Epoch: 19 February)

Event Time Altitude Azimuth Distance (km) Brightness Sun altitude
Rises 17:57:20 0° 334° (NNW) 3,089 7.7 37.4°
Reaches altitude 10° 17:59:35 10° 335° (NNW) 2,215 7.1 37.3°
Maximum altitude 18:04:41 83° 63° (ENE) 782 5.7 37.2°
Drops below altitude 10° 18:10:15 10° 152° (SSE) 2,418 8.4 37.0°
Sets 18:12:48 0° 153° (SSE) 3,393 9.0 36.9°
